Stündliche Wetter Abakonovo

Heute, 25 Juni, Freitag

Zeit Temperatur Niederschläge Wind Luftdruck Luftfeuchtigkeit
00:00 +19°C° 0.1 mm 2 m/S 745 mmHg 92%
01:00 +19°C° 0.1 mm 2 m/S 745 mmHg 92%
02:00 +19°C° 0.1 mm 2 m/S 744 mmHg 92%
03:00 +21°C° 0 mm 1 m/S 744 mmHg 92%
04:00 +21°C° 0 mm 1 m/S 744 mmHg 92%
05:00 +22°C° 0 mm 1 m/S 744 mmHg 91%
06:00 +24°C° 0.1 mm 2 m/S 744 mmHg 84%
07:00 +26°C° 0.1 mm 2 m/S 744 mmHg 77%
08:00 +28°C° 0.1 mm 2 m/S 744 mmHg 69%
09:00 +30°C° 0.1 mm 2 m/S 744 mmHg 61%
10:00 +31°C° 0.1 mm 1 m/S 744 mmHg 52%
11:00 +33°C° 0.1 mm 1 m/S 744 mmHg 44%
12:00 +34°C° 0 mm 2 m/S 743 mmHg 41%
13:00 +35°C° 0 mm 2 m/S 743 mmHg 38%
14:00 +36°C° 0 mm 3 m/S 743 mmHg 35%
15:00 +34°C° 0.7 mm 3 m/S 742 mmHg 44%
16:00 +30°C° 0.7 mm 3 m/S 742 mmHg 53%
17:00 +28°C° 0.7 mm 2 m/S 742 mmHg 62%
18:00 +26°C° 1.3 mm 2 m/S 742 mmHg 72%
19:00 +24°C° 1.3 mm 2 m/S 742 mmHg 81%
20:00 +22°C° 1.3 mm 3 m/S 742 mmHg 91%
21:00 +21°C° 0.3 mm 2 m/S 742 mmHg 92%
22:00 +20°C° 0.3 mm 2 m/S 742 mmHg 94%
23:00 +19°C° 0.3 mm 2 m/S 741 mmHg 96%

Morgen, 26 Juni, Samstag

Zeit Temperatur Niederschläge Wind Luftdruck Luftfeuchtigkeit
00:00 +18°C° 0 mm 2 m/S 742 mmHg 96%
01:00 +18°C° 0 mm 2 m/S 742 mmHg 95%
02:00 +17°C° 0 mm 2 m/S 742 mmHg 95%
03:00 +18°C° 0 mm 2 m/S 742 mmHg 94%
04:00 +18°C° 0 mm 2 m/S 741 mmHg 94%
05:00 +19°C° 0 mm 1 m/S 741 mmHg 93%
06:00 +20°C° 0 mm 2 m/S 741 mmHg 84%
07:00 +23°C° 0 mm 2 m/S 741 mmHg 75%
08:00 +25°C° 0 mm 2 m/S 742 mmHg 65%
09:00 +27°C° 0 mm 2 m/S 741 mmHg 59%
10:00 +28°C° 0 mm 2 m/S 741 mmHg 54%
11:00 +30°C° 0 mm 2 m/S 741 mmHg 48%
12:00 +31°C° 0 mm 3 m/S 741 mmHg 45%
13:00 +31°C° 0 mm 3 m/S 741 mmHg 43%
14:00 +33°C° 0 mm 3 m/S 741 mmHg 40%
15:00 +33°C° 0 mm 3 m/S 741 mmHg 42%
16:00 +31°C° 0 mm 3 m/S 741 mmHg 44%
17:00 +31°C° 0 mm 3 m/S 741 mmHg 46%
18:00 +29°C° 0 mm 2 m/S 741 mmHg 57%
19:00 +27°C° 0 mm 2 m/S 741 mmHg 68%
20:00 +25°C° 0 mm 2 m/S 741 mmHg 79%
21:00 +23°C° 0.1 mm 2 m/S 741 mmHg 85%
22:00 +21°C° 0.1 mm 2 m/S 741 mmHg 90%
23:00 +21°C° 0.1 mm 1 m/S 742 mmHg 96%

übermorgen, 27 Juni, Sonntag

Zeit Temperatur Niederschläge Wind Luftdruck Luftfeuchtigkeit
00:00 +21°C° 0.1 mm 1 m/S 742 mmHg 96%
01:00 +20°C° 0.1 mm 1 m/S 741 mmHg 96%
02:00 +20°C° 0.1 mm 1 m/S 741 mmHg 97%
03:00 +20°C° 0.4 mm 1 m/S 741 mmHg 96%
04:00 +21°C° 0.4 mm 1 m/S 741 mmHg 96%
05:00 +21°C° 0.4 mm 1 m/S 741 mmHg 96%
06:00 +22°C° 0.4 mm 1 m/S 741 mmHg 93%
07:00 +23°C° 0.4 mm 1 m/S 741 mmHg 90%
08:00 +24°C° 0.4 mm 1 m/S 741 mmHg 87%
09:00 +24°C° 0.7 mm 1 m/S 741 mmHg 85%
10:00 +25°C° 0.7 mm 1 m/S 741 mmHg 83%
11:00 +25°C° 0.7 mm 1 m/S 741 mmHg 81%
12:00 +25°C° 1 mm 1 m/S 741 mmHg 82%
13:00 +24°C° 1 mm 1 m/S 741 mmHg 83%
14:00 +24°C° 1 mm 2 m/S 741 mmHg 84%
15:00 +24°C° 0.2 mm 2 m/S 741 mmHg 85%
16:00 +22°C° 0.2 mm 3 m/S 741 mmHg 86%
17:00 +22°C° 0.2 mm 4 m/S 740 mmHg 87%
18:00 +21°C° 0 mm 3 m/S 741 mmHg 89%
19:00 +20°C° 0 mm 3 m/S 741 mmHg 91%
20:00 +19°C° 0 mm 3 m/S 741 mmHg 94%
21:00 +19°C° 0 mm 3 m/S 741 mmHg 94%
22:00 +19°C° 0 mm 2 m/S 741 mmHg 95%
23:00 +19°C° 0 mm 2 m/S 741 mmHg 95%

28 Juni, Montag

Zeit Temperatur Niederschläge Wind Luftdruck Luftfeuchtigkeit
00:00 +19°C° 0 mm 2 m/S 741 mmHg 95%
01:00 +19°C° 0 mm 2 m/S 740 mmHg 95%
02:00 +18°C° 0 mm 2 m/S 740 mmHg 96%
03:00 +18°C° 0 mm 2 m/S 740 mmHg 94%
04:00 +18°C° 0 mm 2 m/S 740 mmHg 92%
05:00 +18°C° 0 mm 2 m/S 741 mmHg 91%
06:00 +19°C° 0 mm 3 m/S 741 mmHg 86%
07:00 +19°C° 0 mm 3 m/S 741 mmHg 82%
08:00 +20°C° 0 mm 3 m/S 741 mmHg 77%
09:00 +21°C° 0 mm 3 m/S 741 mmHg 75%
10:00 +21°C° 0 mm 3 m/S 741 mmHg 72%
11:00 +22°C° 0 mm 3 m/S 741 mmHg 70%
12:00 +22°C° 0.4 mm 3 m/S 741 mmHg 72%
13:00 +22°C° 0.4 mm 3 m/S 740 mmHg 73%
14:00 +22°C° 0.4 mm 3 m/S 740 mmHg 75%
15:00 +21°C° 0.6 mm 3 m/S 740 mmHg 78%
16:00 +21°C° 0.6 mm 3 m/S 740 mmHg 81%
17:00 +20°C° 0.6 mm 3 m/S 740 mmHg 84%
18:00 +20°C° 0.1 mm 3 m/S 739 mmHg 84%
19:00 +19°C° 0.1 mm 2 m/S 739 mmHg 83%
20:00 +19°C° 0.1 mm 2 m/S 739 mmHg 83%
21:00 +19°C° 0.1 mm 2 m/S 739 mmHg 85%
22:00 +18°C° 0.1 mm 2 m/S 739 mmHg 86%
23:00 +18°C° 0.1 mm 2 m/S 738 mmHg 87%

29 Juni, Dienstag

Zeit Temperatur Niederschläge Wind Luftdruck Luftfeuchtigkeit
00:00 +18°C° 0.4 mm 3 m/S 738 mmHg 88%
01:00 +18°C° 0.4 mm 3 m/S 738 mmHg 89%
02:00 +17°C° 0.4 mm 3 m/S 738 mmHg 91%
03:00 +17°C° 1 mm 3 m/S 737 mmHg 93%
04:00 +17°C° 1 mm 3 m/S 737 mmHg 95%
05:00 +17°C° 1 mm 3 m/S 737 mmHg 97%
06:00 +17°C° 1.1 mm 4 m/S 737 mmHg 96%
07:00 +15°C° 1.1 mm 4 m/S 737 mmHg 95%
08:00 +15°C° 1.1 mm 4 m/S 737 mmHg 95%
09:00 +15°C° 1.5 mm 4 m/S 737 mmHg 95%
10:00 +15°C° 1.5 mm 5 m/S 737 mmHg 95%
11:00 +15°C° 1.5 mm 5 m/S 737 mmHg 95%
12:00 +15°C° 1 mm 5 m/S 737 mmHg 95%
13:00 +15°C° 1 mm 5 m/S 737 mmHg 96%
14:00 +15°C° 1 mm 5 m/S 737 mmHg 96%
15:00 +16°C° 0.5 mm 5 m/S 737 mmHg 96%
16:00 +16°C° 0.5 mm 5 m/S 737 mmHg 96%
17:00 +16°C° 0.5 mm 5 m/S 737 mmHg 95%
18:00 +16°C° 0.5 mm 5 m/S 737 mmHg 96%
19:00 +17°C° 0.5 mm 4 m/S 737 mmHg 96%
20:00 +17°C° 0.5 mm 4 m/S 737 mmHg 96%
21:00 +17°C° 0.1 mm 4 m/S 737 mmHg 96%
22:00 +17°C° 0.1 mm 3 m/S 737 mmHg 95%
23:00 +17°C° 0.1 mm 3 m/S 737 mmHg 95%

30 Juni, Mittwoch

Zeit Temperatur Niederschläge Wind Luftdruck Luftfeuchtigkeit
00:00 +16°C° 0 mm 3 m/S 737 mmHg 95%
01:00 +16°C° 0 mm 3 m/S 737 mmHg 96%
02:00 +16°C° 0 mm 2 m/S 737 mmHg 96%
03:00 +16°C° 0 mm 2 m/S 737 mmHg 95%
04:00 +16°C° 0 mm 2 m/S 737 mmHg 94%
05:00 +16°C° 0 mm 2 m/S 737 mmHg 93%
06:00 +18°C° 0 mm 2 m/S 737 mmHg 84%
07:00 +19°C° 0 mm 3 m/S 737 mmHg 74%
08:00 +21°C° 0 mm 3 m/S 737 mmHg 64%
09:00 +22°C° 0 mm 3 m/S 737 mmHg 58%
10:00 +25°C° 0 mm 3 m/S 737 mmHg 51%
11:00 +27°C° 0 mm 3 m/S 737 mmHg 45%
12:00 +26°C° 0 mm 3 m/S 737 mmHg 50%
13:00 +25°C° 0 mm 3 m/S 737 mmHg 56%
14:00 +24°C° 0 mm 3 m/S 736 mmHg 61%
15:00 +25°C° 0.1 mm 3 m/S 736 mmHg 62%
16:00 +25°C° 0.1 mm 3 m/S 736 mmHg 62%
17:00 +25°C° 0.1 mm 3 m/S 736 mmHg 63%
18:00 +23°C° 0.5 mm 2 m/S 736 mmHg 71%
19:00 +21°C° 0.5 mm 2 m/S 736 mmHg 79%
20:00 +19°C° 0.5 mm 2 m/S 736 mmHg 87%
21:00 +18°C° 0.2 mm 2 m/S 736 mmHg 90%
22:00 +17°C° 0.2 mm 2 m/S 736 mmHg 93%
23:00 +17°C° 0.2 mm 3 m/S 736 mmHg 96%
Mehr zeigen

Wir brauchen deine Erlaubnis

Meteoprog und unser Service Anbieter werden persönliche Daten aufbewahren, so wie Cookies, Geräte Bezeichnung oder ähnliche Technologien von deinem Gerät und Prozess, so wie Persönliche Daten Inhalte und Werbungen, genauso wie social Media und den Verkehr zu analysieren.

  • Aufbewahrung und/oder Zugang zu deiner Geräte Informationen.

    Cookies, Geräte Bezeichnung oder andere Informationen, können aufbewahrt oder Zugang zu deinem Gerät erhalten, für den Grund, der oben angegeben wird.

  • Personalisierte Werbung und Inhalte, Messungen, Einblick in das Publikum und Produkt Entwicklung.

    Werbungen und Inhalte können personalisiert werden, basierend auf ein Profil. Mehr Daten können besser personalisierte Werbungen und Inhalte hinzufügen. Werbung und Inhalte können gezeigt und gemessen werden. Einblicke über das Publikum, welche die Werbung gesehen haben und den Inhalt, können abgeleitet werden. So wie Daten können genutzt werden, um es zu verbessern oder die Benutzer Erfahrung zu verbessern das System und die Software.

Wenn du “Ich stimme zu” klickst, erlaubst du uns, die Cookies zu benutzen die Geräte Bezeichnung, den Web oder ähnliche Technologien zu benutzen. Deine Settings, können in deinem Gerät bei deinem Browser geändert werden.

Für den bestimmten Zweck, berechtigten Interessen beruhen darauf, mehr als auf den Inhalt. Du kannst mehr darüber in unseren Privaten und Cookie Politik lesen.